Moose Lake, MN

6:46 PM CST on November 16, 2019 (GMT -0600)
Moose Lake-Carlton County

Weather History for KMZH - October, 2019

Change the Weather History Date:

Tuesday, October 22, 2019

  Actual Average Record
Temperature  
Mean Temperature 40 °F -  
Max Temperature 44 °F 55 °F 75 °F (1953)
Min Temperature 37 °F 32 °F 18 °F (1969)
Degree Days  
Heating Degree Days 24    
Moisture  
Dew Point 36 °F    
Average Humidity 84    
Maximum Humidity 93    
Minimum Humidity 75    
Precipitation  
Precipitation 0.01 in - - ()
Sea Level Pressure  
Sea Level Pressure 29.33 in    
Wind  
Wind Speed 10 mph ()    
Max Wind Speed 18 mph    
Max Gust Speed 29 mph    
Visibility 7.7 miles    
Events Rain    
Averages and records for this station are not official NWS values.
T = Trace of Precipitation, MM = Missing Value Source: Averaged Metar Reports

Daily Weather History Graph

Daily Weather History Graph

Search for Another Location

Airport or City:

Astronomy

Oct. 22, 2019 Rise Set
Actual Time 7:38 AM CDT 6:12 PM CDT
Civil Twilight 7:07 AM CDT 6:43 PM CDT
Nautical Twilight 6:32 AM CDT 7:18 PM CDT
Astronomical Twilight 5:57 AM CDT 7:53 PM CDT
Moon 12:19 AM CDT (10/22) 3:49 PM CDT (10/22)
Length of Visible Light 11h 35m
Length of Day
10h 34m
Last Quarter, 37% of the Moon is Illuminated
Oct 22
Last Quarter
Oct 27
New
Nov 4
First Quarter
Nov 12
Full
Nov 19
Last Quarter

Hourly Weather History & Observations

Time (CDT) Temp. Windchill Dew Point Humidity Pressure Visibility Wind Dir Wind Speed Gust Speed Precip Events Conditions
12:15 AM 44.6 °F 38.8 °F 42.8 °F 93% 29.18 in 10.0 mi NNW 11.5 mph 16.1 mph 0.01 in   Drizzle
12:35 AM 42.8 °F 36.6 °F 41.0 °F 93% 29.18 in 10.0 mi NNW 11.5 mph - 0.01 in   Drizzle
12:36 AM 42.8 °F 37.0 °F 41.0 °F 93% 29.18 in 10.0 mi NNW 10.4 mph - 0.01 in   Light Drizzle
12:59 AM 42.8 °F 35.4 °F 41.0 °F 93% 29.19 in 10.0 mi NNW 15.0 mph 19.6 mph N/A   Light Drizzle
1:17 AM 42.8 °F 37.5 °F 39.2 °F 87% 29.19 in 10.0 mi NNW 9.2 mph 18.4 mph N/A   Light Drizzle
1:35 AM 41.0 °F 35.2 °F 39.2 °F 93% 29.19 in 10.0 mi NNW 9.2 mph 16.1 mph N/A   Light Drizzle
1:36 AM 41.0 °F 35.2 °F 39.2 °F 93% 29.18 in 10.0 mi NNW 9.2 mph - N/A   Light Drizzle
1:55 AM 41.0 °F 36.4 °F 37.4 °F 87% 29.19 in 7.0 mi NNW 6.9 mph 16.1 mph N/A   Light Drizzle
1:56 AM 41.0 °F 36.4 °F 37.4 °F 87% 29.19 in 7.0 mi NNW 6.9 mph 16.1 mph N/A   Light Drizzle
2:15 AM 41.0 °F 34.7 °F 37.4 °F 87% 29.19 in 5.0 mi NNW 10.4 mph 17.3 mph N/A   Overcast
2:19 AM 41.0 °F 35.2 °F 37.4 °F 87% 29.19 in 5.0 mi NNW 9.2 mph 17.3 mph N/A   Overcast
2:38 AM 41.0 °F 35.8 °F 37.4 °F 87% 29.19 in 7.0 mi NW 8.1 mph - N/A   Light Drizzle
2:55 AM 41.0 °F 35.2 °F 37.4 °F 87% 29.19 in 5.0 mi NW 9.2 mph - N/A   Drizzle
3:15 AM 41.0 °F 35.2 °F 37.4 °F 87% 29.19 in 5.0 mi NW 9.2 mph 16.1 mph N/A   Drizzle
3:16 AM 41.0 °F 35.2 °F 37.4 °F 87% 29.19 in 5.0 mi NW 9.2 mph 16.1 mph N/A Rain Rain
3:35 AM 41.0 °F 37.1 °F 37.4 °F 87% 29.19 in 4.0 mi WNW 5.8 mph - N/A Rain Light Rain
3:36 AM 41.0 °F 36.4 °F 37.4 °F 87% 29.19 in 4.0 mi NW 6.9 mph - N/A Rain Light Rain
3:58 AM 41.0 °F 35.8 °F 37.4 °F 87% 29.19 in 4.0 mi NW 8.1 mph 17.3 mph N/A Rain Light Rain
4:16 AM 41.0 °F 34.7 °F 37.4 °F 87% 29.20 in 5.0 mi NW 10.4 mph 16.1 mph N/A Rain Light Rain
4:35 AM 41.0 °F 36.4 °F 37.4 °F 87% 29.20 in 7.0 mi NW 6.9 mph - 0.01 in Rain Light Rain
4:36 AM 41.0 °F 35.8 °F 37.4 °F 87% 29.20 in 7.0 mi NW 8.1 mph - 0.01 in Rain Light Rain
4:55 AM 41.0 °F 35.2 °F 37.4 °F 87% 29.20 in 10.0 mi NW 9.2 mph 17.3 mph 0.01 in   Overcast
5:16 AM 41.0 °F 35.8 °F 37.4 °F 87% 29.20 in 5.0 mi NW 8.1 mph - N/A   Overcast
5:36 AM 41.0 °F 35.2 °F 37.4 °F 87% 29.20 in 7.0 mi NW 9.2 mph - N/A   Overcast
5:55 AM 41.0 °F 34.3 °F 37.4 °F 87% 29.20 in 5.0 mi NW 11.5 mph 17.3 mph N/A   Overcast
5:56 AM 41.0 °F 35.2 °F 37.4 °F 87% 29.20 in 5.0 mi NW 9.2 mph 17.3 mph N/A   Overcast
6:15 AM 41.0 °F 35.2 °F 37.4 °F 87% 29.21 in 3.0 mi NW 9.2 mph - N/A   Drizzle
6:20 AM 41.0 °F 35.8 °F 37.4 °F 87% 29.21 in 3.0 mi NW 8.1 mph - N/A   Drizzle
6:37 AM 41.0 °F 35.8 °F 39.2 °F 93% 29.21 in 3.0 mi WNW 8.1 mph - N/A   Light Drizzle
6:55 AM 41.0 °F 33.9 °F 39.2 °F 93% 29.21 in 3.0 mi NW 12.7 mph 17.3 mph N/A   Light Drizzle
7:15 AM 41.0 °F 34.7 °F 37.4 °F 87% 29.22 in 7.0 mi NW 10.4 mph 18.4 mph N/A   Overcast
7:16 AM 41.0 °F 34.3 °F 37.4 °F 87% 29.22 in 5.0 mi NW 11.5 mph 18.4 mph N/A   Overcast
7:35 AM 41.0 °F 35.2 °F 37.4 °F 87% 29.22 in 4.0 mi WNW 9.2 mph 18.4 mph N/A   Overcast
7:36 AM 41.0 °F 35.2 °F 37.4 °F 87% 29.22 in 4.0 mi WNW 9.2 mph 18.4 mph N/A   Overcast
7:59 AM 41.0 °F 32.8 °F 37.4 °F 87% 29.23 in 5.0 mi WNW 16.1 mph 25.3 mph N/A Rain Light Rain
8:16 AM 41.0 °F 32.5 °F 37.4 °F 87% 29.24 in 5.0 mi NW 17.3 mph 23.0 mph N/A   Drizzle
8:36 AM 41.0 °F 34.7 °F 37.4 °F 87% 29.25 in 7.0 mi WNW 10.4 mph 21.9 mph N/A Rain Light Rain
8:55 AM 41.0 °F 34.3 °F 37.4 °F 87% 29.25 in 4.0 mi WNW 11.5 mph 23.0 mph N/A   Overcast
8:56 AM 41.0 °F 34.3 °F 37.4 °F 87% 29.25 in 4.0 mi NW 11.5 mph 23.0 mph N/A   Overcast
9:15 AM 41.0 °F 33.9 °F 37.4 °F 87% 29.26 in 5.0 mi WNW 12.7 mph 24.2 mph N/A   Overcast
9:19 AM 41.0 °F 33.9 °F 37.4 °F 87% 29.26 in 5.0 mi WNW 12.7 mph 24.2 mph N/A   Overcast
9:37 AM 41.0 °F 33.5 °F 37.4 °F 87% 29.26 in 7.0 mi NW 13.8 mph 21.9 mph N/A   Overcast
9:55 AM 41.0 °F 33.5 °F 35.6 °F 81% 29.27 in 4.0 mi WNW 13.8 mph 27.6 mph N/A   Overcast
9:56 AM 41.0 °F 33.1 °F 35.6 °F 81% 29.27 in 4.0 mi WNW 15.0 mph 27.6 mph N/A   Overcast
10:15 AM 41.0 °F 33.9 °F 35.6 °F 81% 29.27 in 4.0 mi NW 12.7 mph 28.8 mph N/A   Overcast
10:16 AM 39.2 °F 31.6 °F 35.6 °F 87% 29.27 in 4.0 mi NW 12.7 mph 28.8 mph N/A   Overcast
10:35 AM 41.0 °F 33.5 °F 35.6 °F 81% 29.28 in 4.0 mi WNW 13.8 mph 20.7 mph N/A   Overcast
10:57 AM 41.0 °F 33.5 °F 35.6 °F 81% 29.29 in 2.5 mi WNW 13.8 mph 23.0 mph N/A   Light Drizzle
11:15 AM 41.0 °F 32.8 °F 37.4 °F 87% 29.30 in 3.0 mi WNW 16.1 mph 21.9 mph N/A   Light Drizzle
11:35 AM 41.0 °F 33.5 °F 37.4 °F 87% 29.31 in 5.0 mi WNW 13.8 mph 21.9 mph N/A Rain Light Rain
11:36 AM 41.0 °F 33.5 °F 37.4 °F 87% 29.31 in 5.0 mi WNW 13.8 mph 21.9 mph N/A Rain Light Rain
11:55 AM 41.0 °F 33.5 °F 37.4 °F 87% 29.31 in 7.0 mi WNW 13.8 mph 27.6 mph N/A   Light Drizzle
11:56 AM 41.0 °F 34.3 °F 37.4 °F 87% 29.31 in 10.0 mi WNW 11.5 mph 27.6 mph N/A   Light Drizzle
12:18 PM 41.0 °F 33.5 °F 35.6 °F 81% 29.31 in 10.0 mi WNW 13.8 mph 24.2 mph N/A   Overcast
12:37 PM 41.0 °F 32.8 °F 35.6 °F 81% 29.32 in 10.0 mi WNW 16.1 mph 25.3 mph N/A   Overcast
12:56 PM 41.0 °F 32.8 °F 35.6 °F 81% 29.32 in 10.0 mi WNW 16.1 mph 26.5 mph N/A   Overcast
1:15 PM 41.0 °F 32.8 °F 35.6 °F 81% 29.33 in 7.0 mi WNW 16.1 mph 26.5 mph N/A   Overcast
1:35 PM 41.0 °F 32.8 °F 35.6 °F 81% 29.34 in 7.0 mi West 16.1 mph 20.7 mph N/A   Overcast
1:39 PM 41.0 °F 35.2 °F 35.6 °F 81% 29.34 in 10.0 mi West 9.2 mph 20.7 mph N/A   Overcast
1:57 PM 41.0 °F 34.3 °F 35.6 °F 81% 29.35 in 10.0 mi West 11.5 mph 18.4 mph N/A   Overcast
2:15 PM 41.0 °F 33.5 °F 35.6 °F 81% 29.36 in 10.0 mi WNW 13.8 mph 24.2 mph N/A   Light Drizzle
2:35 PM 41.0 °F 33.1 °F 33.8 °F 76% 29.36 in 10.0 mi WNW 15.0 mph 24.2 mph N/A   Overcast
2:36 PM 41.0 °F 33.5 °F 33.8 °F 76% 29.36 in 10.0 mi WNW 13.8 mph 24.2 mph N/A   Overcast
2:55 PM 41.0 °F 35.2 °F 33.8 °F 76% 29.37 in 10.0 mi West 9.2 mph 20.7 mph N/A   Overcast
2:56 PM 41.0 °F 34.3 °F 33.8 °F 76% 29.37 in 10.0 mi West 11.5 mph 20.7 mph N/A   Overcast
3:18 PM 41.0 °F 34.7 °F 33.8 °F 76% 29.38 in 10.0 mi West 10.4 mph 25.3 mph N/A   Overcast
3:36 PM 41.0 °F 33.9 °F 33.8 °F 76% 29.40 in 10.0 mi WNW 12.7 mph 23.0 mph N/A   Overcast
3:55 PM 39.2 °F 31.6 °F 33.8 °F 81% 29.41 in 10.0 mi West 12.7 mph 27.6 mph N/A Rain Light Rain
3:56 PM 39.2 °F 32.0 °F 33.8 °F 81% 29.41 in 10.0 mi West 11.5 mph 27.6 mph N/A Rain Light Rain
4:15 PM 41.0 °F 33.1 °F 35.6 °F 81% 29.42 in 10.0 mi WNW 15.0 mph 21.9 mph N/A   Light Drizzle
4:16 PM 41.0 °F 33.1 °F 35.6 °F 81% 29.42 in 10.0 mi WNW 15.0 mph 21.9 mph N/A   Light Drizzle
4:56 PM 39.2 °F 32.0 °F 33.8 °F 81% 29.44 in 10.0 mi WNW 11.5 mph 19.6 mph N/A   Overcast
5:16 PM 39.2 °F 29.8 °F 33.8 °F 81% 29.45 in 10.0 mi West 18.4 mph 23.0 mph N/A   Overcast
5:35 PM 39.2 °F 32.5 °F 33.8 °F 81% 29.47 in 10.0 mi WNW 10.4 mph 21.9 mph N/A   Overcast
5:36 PM 39.2 °F 34.2 °F 33.8 °F 81% 29.47 in 10.0 mi WNW 6.9 mph 21.9 mph N/A   Overcast
5:55 PM 39.2 °F 31.6 °F 33.8 °F 81% 29.47 in 10.0 mi West 12.7 mph 23.0 mph N/A   Overcast
5:59 PM 39.2 °F 30.8 °F 32.0 °F 75% 29.48 in 10.0 mi West 15.0 mph 23.0 mph N/A   Overcast
6:16 PM 39.2 °F 30.5 °F 33.8 °F 81% 29.48 in 10.0 mi West 16.1 mph 20.7 mph N/A   Overcast
6:35 PM 37.4 °F 29.8 °F 33.8 °F 87% 29.49 in 10.0 mi West 11.5 mph 17.3 mph N/A   Overcast
6:55 PM 37.4 °F 30.3 °F 33.8 °F 87% 29.50 in 10.0 mi West 10.4 mph 18.4 mph N/A   Overcast
6:56 PM 37.4 °F 30.3 °F 33.8 °F 87% 29.50 in 10.0 mi West 10.4 mph 18.4 mph N/A   Overcast
7:18 PM 37.4 °F 29.3 °F 32.0 °F 81% 29.51 in 10.0 mi WNW 12.7 mph 21.9 mph N/A   Overcast
7:36 PM 37.4 °F 29.8 °F 33.8 °F 87% 29.51 in 10.0 mi WNW 11.5 mph 18.4 mph N/A Rain Light Rain
7:56 PM 37.4 °F 29.8 °F 33.8 °F 87% 29.52 in 10.0 mi West 11.5 mph 23.0 mph N/A   Overcast
8:15 PM 37.4 °F 29.3 °F 33.8 °F 87% 29.53 in 10.0 mi WNW 12.7 mph 19.6 mph N/A   Overcast
8:35 PM 37.4 °F 31.4 °F 32.0 °F 81% 29.53 in 10.0 mi WNW 8.1 mph 18.4 mph N/A   Overcast
8:39 PM 37.4 °F 31.4 °F 32.0 °F 81% 29.53 in 10.0 mi West 8.1 mph 18.4 mph N/A   Overcast
8:57 PM 37.4 °F 28.9 °F 32.0 °F 81% 29.54 in 10.0 mi WNW 13.8 mph 23.0 mph N/A   Overcast
9:15 PM 37.4 °F 30.3 °F 32.0 °F 81% 29.54 in 10.0 mi West 10.4 mph 17.3 mph N/A   Overcast
9:35 PM 37.4 °F 31.4 °F 32.0 °F 81% 29.55 in 10.0 mi WNW 8.1 mph 17.3 mph N/A   Overcast
9:55 PM 37.4 °F 29.8 °F 32.0 °F 81% 29.56 in 10.0 mi West 11.5 mph 18.4 mph N/A   Overcast
10:18 PM 37.4 °F 29.8 °F 32.0 °F 81% 29.57 in 10.0 mi WNW 11.5 mph 18.4 mph N/A   Light Drizzle
10:37 PM 37.4 °F 31.4 °F 32.0 °F 81% 29.57 in 10.0 mi WNW 8.1 mph 16.1 mph N/A   Overcast
10:56 PM 37.4 °F 30.8 °F 32.0 °F 81% 29.57 in 10.0 mi WNW 9.2 mph 17.3 mph N/A   Overcast
11:15 PM 37.4 °F 31.4 °F 32.0 °F 81% 29.58 in 10.0 mi WNW 8.1 mph 17.3 mph N/A   Overcast
11:16 PM 37.4 °F 32.1 °F 32.0 °F 81% 29.58 in 10.0 mi West 6.9 mph 17.3 mph N/A   Overcast
11:35 PM 37.4 °F 30.8 °F 32.0 °F 81% 29.58 in 10.0 mi WNW 9.2 mph 17.3 mph N/A   Overcast
11:40 PM 37.4 °F 30.3 °F 32.0 °F 81% 29.58 in 10.0 mi West 10.4 mph 16.1 mph N/A   Overcast
11:56 PM 37.4 °F 31.4 °F 32.0 °F 81% 29.58 in 10.0 mi WNW 8.1 mph 18.4 mph N/A   Overcast